Location: Tucson
(32.2217°N, 110.9265°W)
Time: 07:19:23
(UTC-07:00)

Tiros 1 - Pass Details

Date: 31 October 2021
Orbit: 629 x 664 km, 48.4° (Epoch: 26 November)

Event Time Altitude Azimuth Distance (km) Brightness Sun altitude
Rises 09:45:55 0° 297° (WNW) 2,988 10.1 32.4°
Reaches altitude 10° 09:49:50 10° 328° (NNW) 2,072 9.3 33.0°
Maximum altitude 09:51:40 12° 351° (N) 1,938 9.3 33.2°
Drops below altitude 10° 09:53:29 10° 14° (NNE) 2,066 9.5 33.5°
Sets 09:57:23 0° 45° (NE) 2,970 10.5 34.0°
